STARLINK-30223 (57603 NORAD) Tracking and Keplerian Element Data

This shows tracking and keplerian element data for the satellite.

Feedback or suggestion? Click here.




ElementValue
Catalog57603
NameSTARLINK-30223
Epoch Orbit374
Epoch Day238.91667824
Epoch Year2023
RAAN79.2542
Inclination43.0008
Eccentricity0.0001709
Argument of Perigee214.773
Mean Anonmoly62.4858
Mean Motion15.74848275
Decay Rate-0.00736696
L11 57603U 23119B 23238.91667824 -.00736696 00000+0 -52697-2 0 9997
L22 57603 43.0008 79.2542 0001709 214.7730 62.4858 15.74848275 3746



Live tracking and technical data element details for STARLINK-30223 (NORAD 57603). STARLINK-30223 can be tracked NOW for your location showing map with azimuth and elevation plus other details from your city location.







IsCatalogInMostPopularTable: catalog: 57603, numindb: 5
Update: records affected: 1



GetName: 57603 STARLINK-30223

Hit Count: updated at: Tue, 26 Sep 2023 12:23:15 GMT